This demonstration page uses our WeatherBlox Daily Observations layout. Learn more.

Left ArrowRight Arrow

53.62937, 11.41316

Hourly Observations for June 21, 2019

Temp ( °F °C ) Dew Point ( °F °C ) Humidity (%) Winds ( mph kmh ) Pressure ( in mb ) Visibility ( mi km ) Precip ( " mm )
6:50 am 06:50 Mostly Sunny 59 15 57 14 94 94 W 3 6 29.97 1015 7 11 N/A
7:20 am 07:20 Mostly Sunny 59 15 57 14 94 94 W 3 6 30.00 1016 7 11 N/A
7:50 am 07:50 Partly Cloudy 61 16 57 14 88 88 W 3 6 30.00 1016 30 48 N/A
8:20 am 08:20 Partly Cloudy 61 16 57 14 88 88 WSW 6 9 30.00 1016 30 48 N/A
8:50 am 08:50 Partly Cloudy 63 17 57 14 83 83 SSW 5 7 30.00 1016 30 48 N/A
9:20 am 09:20 Partly Cloudy 63 17 55 13 77 77 W 7 11 30.03 1017 30 48 N/A
9:50 am 09:50 Partly Cloudy 63 17 54 12 73 73 WSW 8 13 30.03 1017 30 48 N/A
10:20 am 10:20 Partly Cloudy 64 18 54 12 68 68 WSW 10 17 30.03 1017 30 48 N/A
10:50 am 10:50 Partly Cloudy 66 19 54 12 64 64 WSW 9 15 30.03 1017 30 48 N/A
11:20 am 11:20 Partly Cloudy 68 20 54 12 60 60 WSW 9 15 30.03 1017 30 48 N/A
11:50 am 11:50 Partly Cloudy 68 20 54 12 60 60 WSW 9 15 30.03 1017 30 48 N/A
12:20 pm 12:20 Partly Cloudy 66 19 52 11 60 60 W 8 13 30.03 1017 30 48 N/A
12:50 pm 12:50 Partly Cloudy 66 19 54 12 64 64 WSW 9 15 30.03 1017 30 48 N/A
1:20 pm 13:20 Partly Cloudy 68 20 54 12 60 60 WSW 6 9 30.03 1017 30 48 N/A
1:50 pm 13:50 Partly Cloudy 68 20 52 11 56 56 WSW 8 13 30.03 1017 30 48 N/A
2:20 pm 14:20 Partly Cloudy 70 21 52 11 53 53 W 6 9 30.03 1017 30 48 N/A
2:50 pm 14:50 Mostly Sunny 70 21 54 12 57 57 WNW 7 11 30.03 1017 30 48 N/A
3:20 pm 15:20 Mostly Sunny 70 21 54 12 57 57 W 9 15 30.06 1018 30 48 N/A
3:50 pm 15:50 Mostly Sunny 70 21 52 11 53 53 W 8 13 30.03 1017 30 48 N/A
4:20 pm 16:20 Mostly Sunny 70 21 50 10 50 50 W 9 15 30.06 1018 30 48 N/A
4:50 pm 16:50 Mostly Sunny 70 21 52 11 53 53 WNW 6 9 30.06 1018 30 48 N/A
5:20 pm 17:20 Partly Cloudy 68 20 52 11 56 56 W 7 11 30.06 1018 30 48 N/A
5:50 pm 17:50 Partly Cloudy 66 19 52 11 60 60 W 3 6 30.06 1018 30 48 N/A
6:20 pm 18:20 Mostly Sunny 66 19 52 11 60 60 WNW 6 9 30.06 1018 30 48 N/A
6:50 pm 18:50 Mostly Sunny 64 18 50 10 60 60 WNW 6 9 30.06 1018 30 48 N/A
7:20 pm 19:20 Mostly Sunny 63 17 50 10 64 64 WNW 6 9 30.09 1019 30 48 N/A
7:50 pm 19:50 Mostly Sunny 63 17 46 8 56 56 WNW 5 7 30.09 1019 7 11 N/A
8:20 pm 20:20 Mostly Sunny 63 17 48 9 59 59 VRB 2 4 30.09 1019 7 11 N/A
8:50 pm 20:50 Mostly Sunny 61 16 48 9 63 63 VRB 2 4 30.12 1020 7 11 N/A

Powered by AerisWeather